Time,TemperatureF,DewpointF,PressureIn,WindDirection,WindDirectionDegrees,WindSpeedMPH,WindSpeedGustMPH,Humidity,HourlyPrecipIn,Conditions,Clouds,dailyrainin,SoftwareType,DateUTC
2013-10-07 00:13:00,52.0,50.0,29.59,SSW,199,4.0,9.0,92,0.00,,,0.63,,2013-10-07 04:13:00,
2013-10-07 00:24:00,52.0,50.0,29.59,South,177,0.0,11.0,92,0.00,,,0.63,,2013-10-07 04:24:00,
2013-10-07 00:53:00,51.0,49.0,29.58,SSW,197,6.0,11.0,94,0.00,,,0.24,,2013-10-07 04:53:00,
2013-10-07 01:23:00,51.0,49.0,29.58,SSW,201,7.0,11.0,94,0.00,,,0.24,,2013-10-07 05:23:00,
2013-10-07 01:52:00,51.0,49.0,29.58,SSW,198,5.0,10.0,94,0.00,,,0.17,,2013-10-07 05:52:00,
2013-10-07 02:22:00,50.0,49.0,29.57,SSW,198,7.0,11.0,95,0.00,,,0.17,,2013-10-07 06:22:00,
2013-10-07 02:53:00,50.0,49.0,29.56,SSW,207,7.0,9.0,95,0.00,,,0.15,,2013-10-07 06:53:00,
2013-10-07 03:22:00,50.0,49.0,29.55,South,184,4.0,7.0,95,0.00,,,0.15,,2013-10-07 07:22:00,
2013-10-07 03:42:00,50.0,49.0,29.54,SSW,213,5.0,9.0,95,0.00,,,0.13,,2013-10-07 07:42:00,
2013-10-07 03:52:00,51.0,50.0,29.53,WSW,238,6.0,10.0,95,0.00,,,0.13,,2013-10-07 07:52:00,
2013-10-07 04:21:00,52.0,50.0,29.53,SSW,194,0.0,5.0,94,0.09,,,0.22,,2013-10-07 08:21:00,
2013-10-07 04:52:00,54.0,53.0,29.53,NW,317,8.0,12.0,96,0.10,,,0.23,,2013-10-07 08:52:00,
2013-10-07 05:22:00,53.0,52.0,29.53,NW,310,5.0,14.0,96,0.02,,,0.24,,2013-10-07 09:22:00,
2013-10-07 05:54:00,52.0,50.0,29.54,WNW,301,8.0,17.0,94,0.02,,,0.25,,2013-10-07 09:54:00,
2013-10-07 06:23:00,51.0,50.0,29.56,West,277,10.0,17.0,95,0.06,,,0.30,,2013-10-07 10:23:00,
2013-10-07 06:53:00,51.0,50.0,29.57,West,270,14.0,20.0,96,0.09,,,0.34,,2013-10-07 10:53:00,
2013-10-07 07:22:00,51.0,50.0,29.58,WNW,300,7.0,18.0,95,0.07,,,0.37,,2013-10-07 11:22:00,
2013-10-07 07:42:00,51.0,50.0,29.58,NW,316,6.0,19.0,95,0.07,,,0.39,,2013-10-07 11:42:00,
2013-10-07 07:52:00,50.0,48.0,29.58,WNW,301,11.0,17.0,94,0.06,,,0.40,,2013-10-07 11:52:00,
2013-10-07 08:22:00,50.0,49.0,29.59,NNW,328,5.0,15.0,95,0.05,,,0.42,,2013-10-07 12:22:00,
2013-10-07 08:43:00,50.0,49.0,29.59,WNW,298,3.0,19.0,95,0.03,,,0.42,,2013-10-07 12:43:00,
2013-10-07 08:52:00,50.0,48.0,29.60,NW,325,9.0,21.0,94,0.02,,,0.42,,2013-10-07 12:52:00,
2013-10-07 09:11:00,50.0,48.0,29.61,NW,311,11.0,17.0,94,0.02,,,0.43,,2013-10-07 13:11:00,
2013-10-07 09:22:00,50.0,48.0,29.61,NW,325,14.0,20.0,93,0.02,,,0.44,,2013-10-07 13:22:00,
2013-10-07 09:42:00,50.0,48.0,29.62,NW,312,13.0,20.0,93,0.03,,,0.45,,2013-10-07 13:42:00,
2013-10-07 09:52:00,50.0,47.0,29.62,WNW,301,13.0,20.0,91,0.04,,,0.46,,2013-10-07 13:52:00,
2013-10-07 10:11:00,50.0,46.0,29.63,NW,306,15.0,25.0,87,0.03,,,0.46,,2013-10-07 14:11:00,
2013-10-07 10:22:00,50.0,46.0,29.63,NW,308,14.0,22.0,86,0.02,,,0.46,,2013-10-07 14:22:00,
2013-10-07 10:42:00,50.0,46.0,29.63,NW,305,12.0,22.0,86,0.01,,,0.46,,2013-10-07 14:42:00,
2013-10-07 10:52:00,51.0,46.0,29.65,NW,313,10.0,23.0,84,0.00,,,0.46,,2013-10-07 14:52:00,
2013-10-07 11:22:00,52.0,47.0,29.66,WNW,294,14.0,24.0,82,0.00,,,0.46,,2013-10-07 15:22:00,
2013-10-07 11:43:00,53.0,47.0,29.66,WNW,290,12.0,24.0,80,0.00,,,0.46,,2013-10-07 15:43:00,
2013-10-07 11:53:00,53.0,47.0,29.67,WNW,290,10.0,25.0,80,0.00,,,0.46,,2013-10-07 15:53:00,
2013-10-07 12:23:00,54.0,47.0,29.68,WNW,290,15.0,27.0,76,0.00,,,0.46,,2013-10-07 16:23:00,
2013-10-07 12:53:00,55.0,47.0,29.70,WNW,282,12.0,23.0,74,0.00,,,0.46,,2013-10-07 16:53:00,
2013-10-07 13:22:00,53.0,45.0,29.71,NW,311,10.0,25.0,75,0.00,,,0.46,,2013-10-07 17:22:00,
2013-10-07 13:53:00,54.0,47.0,29.72,WNW,301,4.0,19.0,76,0.00,,,0.41,,2013-10-07 17:53:00,
2013-10-07 14:22:00,53.0,49.0,29.72,WNW,284,14.0,22.0,86,0.02,,,0.43,,2013-10-07 18:22:00,
2013-10-07 14:52:00,54.0,47.0,29.72,West,265,16.0,23.0,78,0.02,,,0.43,,2013-10-07 18:52:00,
2013-10-07 15:22:00,55.0,49.0,29.74,WNW,288,18.0,24.0,79,0.00,,,0.43,,2013-10-07 19:22:00,
2013-10-07 15:53:00,56.0,47.0,29.75,WNW,294,14.0,25.0,73,0.00,,,0.41,,2013-10-07 19:53:00,
2013-10-07 16:22:00,56.0,48.0,29.77,West,279,15.0,21.0,75,0.00,,,0.41,,2013-10-07 20:22:00,
2013-10-07 16:52:00,56.0,46.0,29.79,WNW,290,17.0,28.0,68,0.00,,,0.40,,2013-10-07 20:52:00,
2013-10-07 17:23:00,56.0,45.0,29.80,NW,315,22.0,32.0,67,0.00,,,0.40,,2013-10-07 21:23:00,
2013-10-07 17:55:00,55.0,45.0,29.83,NW,312,16.0,25.0,69,0.00,,,0.35,,2013-10-07 21:55:00,
2013-10-07 18:24:00,55.0,45.0,29.85,WNW,301,17.0,27.0,70,0.00,,,0.35,,2013-10-07 22:24:00,
2013-10-07 18:53:00,54.0,44.0,29.87,WNW,300,12.0,20.0,69,0.00,,,0.35,,2013-10-07 22:53:00,
2013-10-07 19:22:00,53.0,44.0,29.88,NW,316,12.0,17.0,71,0.00,,,0.35,,2013-10-07 23:22:00,
2013-10-07 19:52:00,53.0,44.0,29.90,NW,311,6.0,14.0,71,0.00,,,0.35,,2013-10-07 23:52:00,
2013-10-07 20:22:00,52.0,43.0,29.92,NNW,339,7.0,17.0,72,0.00,,,0.35,,2013-10-08 00:22:00,
2013-10-07 20:52:00,52.0,43.0,29.93,WNW,298,9.0,16.0,72,0.00,,,0.35,,2013-10-08 00:52:00,
2013-10-07 21:21:00,52.0,43.0,29.95,NW,305,8.0,14.0,71,0.00,,,0.35,,2013-10-08 01:21:00,
2013-10-07 21:52:00,52.0,44.0,29.96,NNE,15,6.0,12.0,73,0.00,,,0.35,,2013-10-08 01:52:00,
2013-10-07 22:22:00,52.0,43.0,29.98,NNW,331,0.0,12.0,71,0.00,,,0.35,,2013-10-08 02:22:00,
2013-10-07 22:52:00,51.0,43.0,29.99,NW,306,4.0,10.0,74,0.00,,,0.35,,2013-10-08 02:52:00,
2013-10-07 23:22:00,51.0,43.0,30.01,NW,324,8.0,11.0,73,0.00,,,0.35,,2013-10-08 03:22:00,
2013-10-07 23:55:00,51.0,44.0,30.01,WNW,288,0.0,0.0,77,0.00,,,0.35,,2013-10-08 03:55:00,